Time,TemperatureF,DewpointF,PressureIn,WindDirection,WindDirectionDegrees,WindSpeedMPH,WindSpeedGustMPH,Humidity,HourlyPrecipIn,Conditions,Clouds,dailyrainin,SoftwareType,DateUTC
2013-09-29 00:04:00,50.4,49.0,30.26,ESE,114,0.0,0.0,93,0.00,,,0.00,weatherlink.com 1.10,2013-09-29 04:04:00,
2013-09-29 00:19:00,50.0,48.0,30.25,ESE,115,0.0,0.0,93,0.00,,,0.00,weatherlink.com 1.10,2013-09-29 04:19:00,
2013-09-29 00:34:00,49.7,48.0,30.25,ESE,115,0.0,0.0,93,0.00,,,0.00,weatherlink.com 1.10,2013-09-29 04:34:00,
2013-09-29 00:49:00,49.2,47.0,30.25,ESE,115,0.0,0.0,93,0.00,,,0.00,weatherlink.com 1.10,2013-09-29 04:49:00,
2013-09-29 01:04:00,48.7,47.0,30.25,ESE,115,0.0,0.0,93,0.00,,,0.00,weatherlink.com 1.10,2013-09-29 05:04:00,
2013-09-29 01:20:00,48.3,46.0,30.25,ESE,114,0.0,0.0,93,0.00,,,0.00,weatherlink.com 1.10,2013-09-29 05:20:00,
2013-09-29 01:35:00,48.1,46.0,30.25,ESE,114,0.0,0.0,93,0.00,,,0.00,weatherlink.com 1.10,2013-09-29 05:35:00,
2013-09-29 01:50:00,48.0,46.0,30.25,ESE,114,0.0,0.0,94,0.00,,,0.00,weatherlink.com 1.10,2013-09-29 05:50:00,
2013-09-29 02:05:00,47.4,46.0,30.24,ESE,115,0.0,0.0,94,0.00,,,0.00,weatherlink.com 1.10,2013-09-29 06:05:00,
2013-09-29 02:35:00,47.1,46.0,30.23,ESE,114,0.0,0.0,94,0.00,,,0.00,weatherlink.com 1.10,2013-09-29 06:35:00,
2013-09-29 02:50:00,46.8,45.0,30.23,ESE,115,0.0,0.0,94,0.00,,,0.00,weatherlink.com 1.10,2013-09-29 06:50:00,
2013-09-29 03:05:00,46.5,45.0,30.23,ESE,114,0.0,0.0,94,0.00,,,0.00,weatherlink.com 1.10,2013-09-29 07:05:00,
2013-09-29 03:20:00,46.6,45.0,30.23,ESE,114,0.0,0.0,95,0.00,,,0.00,weatherlink.com 1.10,2013-09-29 07:20:00,
2013-09-29 03:35:00,46.9,46.0,30.22,ESE,115,0.0,0.0,95,0.00,,,0.00,weatherlink.com 1.10,2013-09-29 07:35:00,
2013-09-29 03:50:00,47.0,46.0,30.22,ESE,115,0.0,0.0,95,0.00,,,0.00,weatherlink.com 1.10,2013-09-29 07:50:00,
2013-09-29 04:05:00,47.1,46.0,30.22,ESE,115,0.0,0.0,95,0.00,,,0.00,weatherlink.com 1.10,2013-09-29 08:05:00,
2013-09-29 04:20:00,47.5,46.0,30.22,ESE,115,0.0,0.0,95,0.00,,,0.00,weatherlink.com 1.10,2013-09-29 08:20:00,
2013-09-29 04:35:00,47.4,46.0,30.22,ESE,114,0.0,0.0,95,0.00,,,0.00,weatherlink.com 1.10,2013-09-29 08:35:00,
2013-09-29 04:50:00,47.2,46.0,30.22,ESE,114,0.0,0.0,95,0.00,,,0.00,weatherlink.com 1.10,2013-09-29 08:50:00,
2013-09-29 05:05:00,47.3,46.0,30.21,ESE,115,0.0,0.0,95,0.00,,,0.00,weatherlink.com 1.10,2013-09-29 09:05:00,
2013-09-29 05:20:00,47.6,46.0,30.22,ESE,115,0.0,0.0,95,0.00,,,0.00,weatherlink.com 1.10,2013-09-29 09:20:00,
2013-09-29 05:35:00,47.9,47.0,30.22,ESE,115,0.0,0.0,95,0.00,,,0.00,weatherlink.com 1.10,2013-09-29 09:35:00,
2013-09-29 05:50:00,48.0,47.0,30.22,ESE,115,0.0,0.0,95,0.00,,,0.00,weatherlink.com 1.10,2013-09-29 09:50:00,
2013-09-29 06:05:00,48.2,47.0,30.22,ESE,114,0.0,0.0,95,0.00,,,0.00,weatherlink.com 1.10,2013-09-29 10:05:00,
2013-09-29 06:20:00,48.2,47.0,30.22,West,279,0.0,1.0,95,0.00,,,0.00,weatherlink.com 1.10,2013-09-29 10:20:00,
2013-09-29 06:35:00,47.9,47.0,30.22,WNW,295,0.0,1.0,95,0.00,,,0.00,weatherlink.com 1.10,2013-09-29 10:35:00,
2013-09-29 06:50:00,47.9,47.0,30.23,WNW,295,0.0,0.0,95,0.00,,,0.00,weatherlink.com 1.10,2013-09-29 10:50:00,
2013-09-29 07:05:00,47.9,47.0,30.23,WNW,295,0.0,1.0,95,0.00,,,0.00,weatherlink.com 1.10,2013-09-29 11:05:00,
2013-09-29 07:20:00,48.1,47.0,30.22,WNW,294,0.0,0.0,95,0.00,,,0.00,weatherlink.com 1.10,2013-09-29 11:20:00,
2013-09-29 07:35:00,48.3,47.0,30.22,WNW,294,0.0,0.0,95,0.00,,,0.00,weatherlink.com 1.10,2013-09-29 11:35:00,
2013-09-29 07:50:00,48.6,48.0,30.22,WNW,295,0.0,1.0,96,0.00,,,0.00,weatherlink.com 1.10,2013-09-29 11:50:00,
2013-09-29 08:05:00,48.7,47.0,30.22,WSW,250,0.0,1.0,95,0.00,,,0.00,weatherlink.com 1.10,2013-09-29 12:05:00,
2013-09-29 08:20:00,49.0,48.0,30.22,West,272,0.0,1.0,96,0.00,,,0.00,weatherlink.com 1.10,2013-09-29 12:20:00,
2013-09-29 08:35:00,49.2,48.0,30.23,West,272,0.0,1.0,95,0.00,,,0.00,weatherlink.com 1.10,2013-09-29 12:35:00,
2013-09-29 08:50:00,49.6,49.0,30.23,West,281,0.0,1.0,96,0.01,,,0.01,weatherlink.com 1.10,2013-09-29 12:50:00,
2013-09-29 09:05:00,50.4,49.0,30.24,SW,234,0.0,1.0,96,0.01,,,0.01,weatherlink.com 1.10,2013-09-29 13:05:00,
2013-09-29 09:20:00,50.9,50.0,30.24,WSW,253,0.0,1.0,96,0.01,,,0.01,weatherlink.com 1.10,2013-09-29 13:20:00,
2013-09-29 09:35:00,51.6,51.0,30.24,WSW,250,0.0,2.0,96,0.01,,,0.01,weatherlink.com 1.10,2013-09-29 13:35:00,
2013-09-29 09:50:00,52.2,51.0,30.23,NNW,332,0.0,1.0,96,0.00,,,0.01,weatherlink.com 1.10,2013-09-29 13:50:00,
2013-09-29 10:05:00,53.0,52.0,30.23,WNW,292,0.0,1.0,96,0.00,,,0.01,weatherlink.com 1.10,2013-09-29 14:05:00,
2013-09-29 10:20:00,53.8,52.0,30.23,WNW,292,1.0,3.0,95,0.00,,,0.01,weatherlink.com 1.10,2013-09-29 14:20:00,
2013-09-29 10:35:00,55.3,54.0,30.23,WNW,294,1.0,2.0,94,0.00,,,0.01,weatherlink.com 1.10,2013-09-29 14:35:00,
2013-09-29 10:50:00,57.2,55.0,30.22,West,259,1.0,1.0,92,0.00,,,0.01,weatherlink.com 1.10,2013-09-29 14:50:00,
2013-09-29 11:05:00,60.0,55.0,30.22,West,265,0.0,2.0,83,0.00,,,0.01,weatherlink.com 1.10,2013-09-29 15:05:00,
2013-09-29 11:20:00,62.1,55.0,30.21,NNW,341,1.0,2.0,77,0.00,,,0.01,weatherlink.com 1.10,2013-09-29 15:20:00,
2013-09-29 11:36:00,63.4,54.0,30.20,NNW,332,1.0,2.0,71,0.00,,,0.01,weatherlink.com 1.10,2013-09-29 15:36:00,
2013-09-29 11:51:00,64.9,52.0,30.19,NNE,27,2.0,4.0,63,0.00,,,0.01,weatherlink.com 1.10,2013-09-29 15:51:00,
2013-09-29 12:06:00,65.5,50.0,30.19,ESE,105,2.0,5.0,58,0.00,,,0.01,weatherlink.com 1.10,2013-09-29 16:06:00,
2013-09-29 12:21:00,66.7,47.0,30.18,East,90,5.0,6.0,50,0.00,,,0.01,weatherlink.com 1.10,2013-09-29 16:21:00,
2013-09-29 12:36:00,66.8,47.0,30.18,NNW,338,4.0,4.0,50,0.00,,,0.01,weatherlink.com 1.10,2013-09-29 16:36:00,
2013-09-29 12:51:00,66.8,43.0,30.18,SE,134,3.0,9.0,43,0.00,,,0.01,weatherlink.com 1.10,2013-09-29 16:51:00,
2013-09-29 13:06:00,67.4,46.0,30.18,ESE,114,0.0,7.0,47,0.00,,,0.01,weatherlink.com 1.10,2013-09-29 17:06:00,
2013-09-29 13:21:00,68.3,48.0,30.17,NNW,327,2.0,3.0,48,0.00,,,0.01,weatherlink.com 1.10,2013-09-29 17:21:00,
2013-09-29 13:36:00,68.4,47.0,30.17,ESE,103,2.0,6.0,46,0.00,,,0.01,weatherlink.com 1.10,2013-09-29 17:36:00,
2013-09-29 13:51:00,68.4,47.0,30.16,NE,48,2.0,5.0,47,0.00,,,0.01,weatherlink.com 1.10,2013-09-29 17:51:00,
2013-09-29 14:06:00,68.9,47.0,30.16,NNW,333,3.0,5.0,45,0.00,,,0.01,weatherlink.com 1.10,2013-09-29 18:06:00,
2013-09-29 14:21:00,68.2,45.0,30.15,SE,132,0.0,5.0,43,0.00,,,0.01,weatherlink.com 1.10,2013-09-29 18:21:00,
2013-09-29 14:36:00,68.9,44.0,30.15,NNW,339,0.0,4.0,41,0.00,,,0.01,weatherlink.com 1.10,2013-09-29 18:36:00,
2013-09-29 14:51:00,68.1,45.0,30.14,NNE,12,1.0,5.0,44,0.00,,,0.01,weatherlink.com 1.10,2013-09-29 18:51:00,
2013-09-29 15:06:00,67.9,46.0,30.14,NW,311,1.0,5.0,45,0.00,,,0.01,weatherlink.com 1.10,2013-09-29 19:06:00,
2013-09-29 15:21:00,67.6,45.0,30.14,SE,129,1.0,7.0,44,0.00,,,0.01,weatherlink.com 1.10,2013-09-29 19:21:00,
2013-09-29 15:36:00,67.2,44.0,30.13,SSE,161,1.0,7.0,44,0.00,,,0.01,weatherlink.com 1.10,2013-09-29 19:36:00,
2013-09-29 15:51:00,68.0,44.0,30.13,ESE,107,3.0,5.0,42,0.00,,,0.01,weatherlink.com 1.10,2013-09-29 19:51:00,
2013-09-29 16:06:00,67.3,46.0,30.12,ESE,123,3.0,5.0,47,0.00,,,0.01,weatherlink.com 1.10,2013-09-29 20:06:00,
2013-09-29 16:21:00,66.4,48.0,30.12,NNW,344,1.0,7.0,51,0.00,,,0.01,weatherlink.com 1.10,2013-09-29 20:21:00,
2013-09-29 16:36:00,66.5,49.0,30.12,NNW,338,1.0,4.0,53,0.00,,,0.01,weatherlink.com 1.10,2013-09-29 20:36:00,
2013-09-29 16:51:00,66.0,50.0,30.12,South,181,1.0,5.0,56,0.00,,,0.01,weatherlink.com 1.10,2013-09-29 20:51:00,
2013-09-29 17:06:00,64.5,50.0,30.12,SSW,192,0.0,7.0,59,0.00,,,0.01,weatherlink.com 1.10,2013-09-29 21:06:00,
2013-09-29 17:21:00,64.5,49.0,30.13,ENE,57,0.0,4.0,58,0.00,,,0.01,weatherlink.com 1.10,2013-09-29 21:21:00,
2013-09-29 17:36:00,62.7,49.0,30.12,SSE,152,0.0,7.0,61,0.00,,,0.01,weatherlink.com 1.10,2013-09-29 21:36:00,
2013-09-29 17:51:00,61.5,48.0,30.13,NW,310,0.0,4.0,61,0.00,,,0.01,weatherlink.com 1.10,2013-09-29 21:51:00,
2013-09-29 18:06:00,60.4,48.0,30.13,NNW,338,0.0,2.0,63,0.00,,,0.01,weatherlink.com 1.10,2013-09-29 22:06:00,
2013-09-29 18:21:00,59.3,48.0,30.12,East,101,1.0,3.0,66,0.00,,,0.01,weatherlink.com 1.10,2013-09-29 22:21:00,
2013-09-29 18:36:00,58.3,48.0,30.12,SE,135,0.0,2.0,68,0.00,,,0.01,weatherlink.com 1.10,2013-09-29 22:36:00,
2013-09-29 18:51:00,57.3,49.0,30.13,SE,138,0.0,1.0,73,0.00,,,0.01,weatherlink.com 1.10,2013-09-29 22:51:00,
2013-09-29 19:06:00,56.1,49.0,30.13,SE,146,0.0,2.0,78,0.00,,,0.01,weatherlink.com 1.10,2013-09-29 23:06:00,
2013-09-29 19:21:00,55.5,50.0,30.12,SE,126,0.0,0.0,81,0.00,,,0.01,weatherlink.com 1.10,2013-09-29 23:21:00,
2013-09-29 19:36:00,54.9,50.0,30.13,ESE,113,0.0,0.0,83,0.00,,,0.01,weatherlink.com 1.10,2013-09-29 23:36:00,
2013-09-29 19:51:00,54.1,50.0,30.13,ESE,114,0.0,0.0,85,0.00,,,0.01,weatherlink.com 1.10,2013-09-29 23:51:00,
2013-09-29 20:06:00,53.4,50.0,30.13,ESE,113,0.0,1.0,87,0.00,,,0.01,weatherlink.com 1.10,2013-09-30 00:06:00,
2013-09-29 20:21:00,52.7,49.0,30.13,ESE,113,0.0,0.0,87,0.00,,,0.01,weatherlink.com 1.10,2013-09-30 00:21:00,
2013-09-29 20:51:00,51.4,48.0,30.12,ESE,113,0.0,0.0,89,0.00,,,0.01,weatherlink.com 1.10,2013-09-30 00:51:00,
2013-09-29 21:06:00,50.8,48.0,30.12,ESE,113,0.0,0.0,90,0.00,,,0.01,weatherlink.com 1.10,2013-09-30 01:06:00,
2013-09-29 21:21:00,50.4,48.0,30.12,ESE,115,0.0,0.0,90,0.00,,,0.01,weatherlink.com 1.10,2013-09-30 01:21:00,
2013-09-29 21:36:00,49.8,47.0,30.12,ESE,114,0.0,0.0,91,0.00,,,0.01,weatherlink.com 1.10,2013-09-30 01:36:00,
2013-09-29 21:51:00,49.3,47.0,30.11,ESE,115,0.0,0.0,91,0.00,,,0.01,weatherlink.com 1.10,2013-09-30 01:51:00,
2013-09-29 22:06:00,49.0,47.0,30.11,ESE,114,0.0,0.0,92,0.00,,,0.01,weatherlink.com 1.10,2013-09-30 02:06:00,
2013-09-29 22:21:00,48.7,47.0,30.12,ESE,115,0.0,0.0,92,0.00,,,0.01,weatherlink.com 1.10,2013-09-30 02:21:00,
2013-09-29 22:36:00,48.3,46.0,30.12,ESE,115,0.0,0.0,92,0.00,,,0.01,weatherlink.com 1.10,2013-09-30 02:36:00,
2013-09-29 22:51:00,48.3,46.0,30.11,ESE,115,0.0,0.0,93,0.00,,,0.01,weatherlink.com 1.10,2013-09-30 02:51:00,
2013-09-29 23:06:00,48.1,46.0,30.11,ESE,115,0.0,0.0,93,0.00,,,0.01,weatherlink.com 1.10,2013-09-30 03:06:00,
2013-09-29 23:21:00,48.7,47.0,30.12,ESE,115,0.0,0.0,94,0.00,,,0.01,weatherlink.com 1.10,2013-09-30 03:21:00,
2013-09-29 23:36:00,49.6,48.0,30.12,ESE,114,0.0,0.0,94,0.00,,,0.01,weatherlink.com 1.10,2013-09-30 03:36:00,
2013-09-29 23:51:00,50.5,49.0,30.12,SW,218,0.0,1.0,94,0.00,,,0.01,weatherlink.com 1.10,2013-09-30 03:51:00,